Columbia, MO

2:57 PM CST on January 20, 2017 (GMT -0600)
Columbia Regional

Weather History for KCOU - September, 2012

Change the Weather History Date:

Sunday, September 2, 2012

  Actual Average Record
Temperature  
Mean Temperature 77 °F 73 °F  
Max Temperature 85 °F 84 °F 100 °F (1913)
Min Temperature 69 °F 62 °F 46 °F (1893)
Degree Days  
Heating Degree Days 0 0  
Month to date heating degree days 0 0  
Since 1 July heating degree days 0 2  
Cooling Degree Days 12 8  
Month to date cooling degree days 22 17  
Year to date cooling degree days 1745 1100  
Growing Degree Days 26 (Base 50)    
Moisture  
Dew Point 70 °F    
Average Humidity 83    
Maximum Humidity 100    
Minimum Humidity 65    
Precipitation  
Precipitation T in 0.13 in 6.61 in (1918)
Month to date precipitation 0.22 0.27  
Year to date precipitation 23.05 30.02  
Snow  
Snow 0.00 in 0.00 in 0.00 in (2015)
Month to date snowfall 0.0 0.0  
Since 1 July snowfall 0.0 0.0  
Since 1 September snowfall 0.0 0.0  
Snow Depth 0.00 in    
Sea Level Pressure  
Sea Level Pressure 29.87 in    
Wind  
Wind Speed 8 mph (NW)    
Max Wind Speed 15 mph    
Max Gust Speed 20 mph    
Visibility 7 miles    
Events Rain    
T = Trace of Precipitation, MM = Missing Value Source: NWS Daily Summary

Daily Weather History Graph

Daily Weather History Graph

Search for Another Location

Airport or City:

Trip Planner

Search our weather history database for the weather conditions in past years. The results will help you decide how hot, cold, wet, or windy it might be!

Date:

Astronomy

Sep. 02, 2012 Rise Set
Actual Time 6:39 AM CDT 7:36 PM CDT
Civil Twilight 6:12 AM CDT 8:03 PM CDT
Nautical Twilight 5:39 AM CDT 8:36 PM CDT
Astronomical Twilight 5:06 AM CDT 9:09 PM CDT
Moon 8:26 PM CDT (9/2) 8:46 AM CDT (9/2)
Length of Visible Light 13h 51m
Length of Day
12h 57m
Waning Gibbous, 95% of the Moon is Illuminated
Sep 2
Waning Gibbous
Sep 8
Last Quarter
Sep 15
New
Sep 22
First Quarter
Sep 29
Full

Hourly Weather History & Observations

Time (CDT) Temp. Heat Index Dew Point Humidity Pressure Visibility Wind Dir Wind Speed Gust Speed Precip Events Conditions
12:25 AM 73.4 °F - 71.6 °F 94% 29.84 in 9.0 mi NNW 9.2 mph - N/A   Overcast
12:54 AM 73.0 °F - 72.0 °F 96% 29.82 in 10.0 mi NNW 10.4 mph - N/A   Overcast
1:21 AM 71.6 °F - 71.6 °F 100% 29.85 in 7.0 mi NNW 12.7 mph - 0.00 in   Overcast
1:54 AM 72.0 °F - 71.1 °F 97% 29.82 in 3.0 mi NW 9.2 mph - 0.00 in Rain Light Rain
2:54 AM 71.6 °F - 71.6 °F 100% 29.84 in 7.0 mi NW 9.2 mph - N/A   Overcast
3:54 AM 72.0 °F - 71.1 °F 97% 29.82 in 5.0 mi NNW 10.4 mph - 0.00 in   Overcast
4:09 AM 71.6 °F - 71.6 °F 100% 29.84 in 2.5 mi NNW 11.5 mph - 0.00 in Rain Light Rain
4:35 AM 71.6 °F - 69.8 °F 94% 29.84 in 3.0 mi NW 13.8 mph - 0.00 in Rain Light Rain
4:54 AM 71.1 °F - 70.0 °F 96% 29.83 in 2.5 mi NW 12.7 mph - 0.00 in   Overcast
5:22 AM 71.6 °F - 69.8 °F 94% 29.85 in 4.0 mi NW 9.2 mph - N/A   Overcast
5:54 AM 71.1 °F - 70.0 °F 96% 29.83 in 5.0 mi NW 9.2 mph - N/A   Overcast
6:38 AM 69.8 °F - 69.8 °F 100% 29.87 in 2.5 mi NW 11.5 mph - 0.00 in Rain Light Rain
6:54 AM 70.0 °F - 69.1 °F 97% 29.86 in 2.5 mi NW 11.5 mph - 0.00 in   Overcast
7:54 AM 69.1 °F - 66.9 °F 93% 29.87 in 2.0 mi NW 11.5 mph - 0.00 in Rain Light Rain
8:54 AM 69.1 °F - 68.0 °F 96% 29.89 in 2.0 mi NW 11.5 mph - 0.00 in   Overcast
9:15 AM 69.8 °F - 68.0 °F 94% 29.91 in 1.2 mi NW 12.7 mph - N/A   Overcast
9:51 AM 69.8 °F - 68.0 °F 94% 29.91 in 2.5 mi NNW 11.5 mph - N/A   Overcast
9:54 AM 69.1 °F - 68.0 °F 96% 29.89 in 2.5 mi NNW 12.7 mph - N/A   Overcast
10:03 AM 69.8 °F - 68.0 °F 94% 29.91 in 3.0 mi NNW 10.4 mph - N/A   Overcast
10:54 AM 70.0 °F - 68.0 °F 93% 29.91 in 4.0 mi NW 10.4 mph - N/A   Overcast
11:43 AM 71.6 °F - 68.0 °F 88% 29.93 in 7.0 mi NW 10.4 mph - N/A   Overcast
11:54 AM 73.0 °F - 69.1 °F 87% 29.90 in 8.0 mi WNW 10.4 mph - N/A   Overcast
12:44 PM 75.2 °F - 69.8 °F 83% 29.91 in 10.0 mi WNW 9.2 mph - N/A   Overcast
12:54 PM 75.0 °F - 69.1 °F 82% 29.89 in 10.0 mi WNW 5.8 mph - N/A   Overcast
1:54 PM 75.9 °F - 69.1 °F 79% 29.89 in 10.0 mi NW 9.2 mph - N/A   Overcast
2:40 PM 78.8 °F - 69.8 °F 74% 29.91 in 10.0 mi NNW 10.4 mph - N/A   Overcast
2:54 PM 79.0 °F - 70.0 °F 74% 29.88 in 10.0 mi NNW 8.1 mph - N/A   Overcast
3:25 PM 80.6 °F 83.9 °F 69.8 °F 70% 29.89 in 10.0 mi NW 8.1 mph - N/A   Overcast
3:54 PM 82.0 °F 85.9 °F 70.0 °F 67% 29.87 in 10.0 mi NW 8.1 mph - N/A   Overcast
4:54 PM 82.9 °F 87.0 °F 70.0 °F 65% 29.86 in 10.0 mi NNW 4.6 mph - N/A   Mostly Cloudy
5:54 PM 82.0 °F 86.3 °F 71.1 °F 69% 29.86 in 10.0 mi NNW 6.9 mph - N/A   Mostly Cloudy
6:54 PM 82.0 °F 86.3 °F 71.1 °F 69% 29.85 in 10.0 mi NW 8.1 mph - N/A   Clear
7:54 PM 78.1 °F - 70.0 °F 76% 29.86 in 10.0 mi NW 4.6 mph - N/A   Clear
8:54 PM 75.9 °F - 71.1 °F 85% 29.88 in 10.0 mi NW 3.5 mph - N/A   Clear
9:54 PM 73.9 °F - 71.1 °F 91% 29.89 in 10.0 mi NW 4.6 mph - N/A   Partly Cloudy
10:54 PM 75.2 °F - 69.8 °F 83% 29.91 in 10.0 mi NNW 3.5 mph - N/A   Clear
11:54 PM 73.0 °F - 70.0 °F 90% 29.89 in 10.0 mi NNW 3.5 mph - N/A   Clear